Location: Winthrop
(48.4780°N, 120.1850°W)
Time: 16:58:39
(UTC-07:00)

Explorer 7 - Pass Details

Date: 06 February 2023
Orbit: 478 x 657 km, 50.3° (Epoch: 30 March)

Event Time Altitude Azimuth Distance (km) Brightness Sun altitude
Rises 11:17:02 0° 237° (WSW) 2,628 10.5 24.7°
Reaches altitude 10° 11:19:12 10° 233° (SW) 1,770 9.8 24.8°
Maximum altitude 11:23:09 60° 154° (SSE) 637 8.2 25.0°
Drops below altitude 10° 11:27:24 10° 75° (ENE) 1,890 9.6 25.1°
Sets 11:29:46 0° 72° (ENE) 2,826 10.4 25.2°
